This demonstration page uses our WeatherBlox Daily Observations layout. Learn more.

Left ArrowRight Arrow

Hourly Observations for December 19, 2020

Temp ( °F °C ) Dew Point ( °F °C ) Humidity (%) Winds ( mph kmh ) Pressure ( in mb ) Visibility ( mi km ) Precip ( " mm )
12:15 am 00:15 Clear 29 -1.8 24 -4.3 83 83 NNW 12 19 30.24 1024 10 16 N/A
12:35 am 00:35 Clear 29 -1.9 24 -4.5 83 83 NNW 10 17 30.25 1025 10 16 N/A
12:55 am 00:55 Clear 28 -2 24 -4.6 83 83 NNW 9 15 30.25 1025 10 16 N/A
1:15 am 01:15 Clear 28 -2.3 23 -5 82 82 NW 10 17 30.25 1024 10 16 N/A
1:35 am 01:35 Clear 28 -2.5 23 -5 83 83 NW 9 15 30.25 1024 10 16 N/A
1:55 am 01:55 Clear 26 -3.5 21 -5.9 84 84 NW 8 13 30.26 1025 10 16 N/A
2:15 am 02:15 Clear 26 -3.5 22 -5.5 86 86 NW 8 13 30.26 1025 10 16 N/A
2:35 am 02:35 Clear 25 -3.8 21 -6 85 85 NW 7 11 30.26 1025 10 16 N/A
2:55 am 02:55 Clear 24 -4.7 20 -6.6 87 87 WNW 8 13 30.27 1025 10 16 N/A
3:15 am 03:15 Clear 24 -4.2 21 -6.1 87 87 WNW 7 11 30.28 1025 10 16 N/A
3:35 am 03:35 Clear 23 -5.1 19 -7 87 87 WNW 8 13 30.29 1026 10 16 N/A
3:55 am 03:55 Clear 21 -5.9 19 -7.5 89 89 WNW 9 15 30.28 1026 10 16 N/A
4:15 am 04:15 Clear 21 -6 18 -7.8 87 87 NW 9 15 30.28 1026 10 16 N/A
4:35 am 04:35 Clear 22 -5.5 19 -7.4 87 87 NW 7 11 30.28 1025 10 16 N/A
4:55 am 04:55 Clear 21 -5.9 19 -7.4 89 89 NW 8 13 30.28 1026 10 16 N/A
5:15 am 05:15 Clear 21 -6 19 -7.4 90 90 NNW 3 6 30.27 1025 10 16 N/A
5:35 am 05:35 Clear 19 -7 17 -8.4 90 90 N N/A 30.28 1026 10 16 N/A
5:55 am 05:55 Clear 20 -6.5 18 -7.7 91 91 WNW 3 6 30.28 1025 10 16 N/A
6:15 am 06:15 Clear 20 -6.4 18 -7.6 91 91 W 7 11 30.28 1025 10 16 N/A
6:35 am 06:35 Clear 21 -6 19 -7.5 89 89 WSW 6 9 30.28 1026 10 16 N/A
6:55 am 06:55 Clear 20 -6.6 17 -8.2 89 89 N N/A 30.28 1025 10 16 N/A
7:15 am 07:15 Clear 20 -6.7 17 -8.1 90 90 N N/A 30.29 1026 10 16 N/A
7:35 am 07:35 Clear 21 -6.1 19 -7.5 90 90 N N/A 30.28 1025 10 16 N/A
7:55 am 07:55 Clear 22 -5.7 19 -7.2 89 89 SW 3 6 30.26 1025 10 16 N/A
8:15 am 08:15 Sunny 21 -6.2 18 -7.8 89 89 W 6 9 30.28 1025 10 16 N/A
8:35 am 08:35 Sunny 21 -6.3 18 -7.6 91 91 W 7 11 30.28 1025 10 16 N/A
8:55 am 08:55 Sunny 24 -4.2 20 -6.6 84 84 W 8 13 30.25 1024 10 16 N/A
9:15 am 09:15 Sunny 25 -3.8 20 -6.6 81 81 N N/A 30.24 1024 10 16 N/A
9:35 am 09:35 Sunny 27 -3 22 -5.8 81 81 SSW 5 7 30.22 1024 10 16 N/A
9:55 am 09:55 Sunny 28 -2 22 -5.5 77 77 SW 6 9 30.21 1023 10 16 N/A
10:15 am 10:15 Sunny 30 -1.2 24 -4.6 78 78 SW 5 7 30.21 1023 10 16 N/A
10:35 am 10:35 Sunny 30 -1 24 -4.5 77 77 SW 7 11 30.19 1023 10 16 N/A
10:55 am 10:55 Sunny 31 -0.5 25 -3.8 79 79 SW 6 9 30.19 1022 10 16 N/A
11:15 am 11:15 Sunny 32 -0.1 26 -3.6 78 78 SSW 8 13 30.18 1022 10 16 N/A
11:35 am 11:35 Sunny 33 0.3 26 -3.1 78 78 SW 7 11 30.17 1022 10 16 N/A
11:55 am 11:55 Sunny 34 1 27 -2.7 77 77 SW 10 17 30.15 1021 10 16 N/A
12:15 pm 12:15 Sunny 35 1.7 28 -2.4 75 75 SW 10 17 30.13 1020 10 16 N/A
12:35 pm 12:35 Sunny 36 2.2 28 -2.1 74 74 SW 12 19 30.11 1020 10 16 N/A
12:55 pm 12:55 Sunny 37 2.6 29 -1.8 73 73 SW 9 15 30.09 1019 10 16 N/A
1:15 pm 13:15 Sunny 38 3.2 30 -1.2 73 73 SW 9 15 30.07 1018 10 16 N/A
1:35 pm 13:35 Sunny 39 4 30 -1 70 70 SSW 13 20 30.06 1018 10 16 N/A
1:55 pm 13:55 Sunny 40 4.6 31 -0.6 69 69 SW 10 17 30.04 1017 10 16 N/A
2:15 pm 14:15 Sunny 41 5 30 -0.9 66 66 SW 12 19 30.02 1017 10 16 N/A
2:35 pm 14:35 Sunny 42 5.5 31 -0.5 66 66 SW 9 15 30.00 1016 10 16 N/A
2:55 pm 14:55 Sunny 42 5.8 31 -0.5 64 64 SW 10 17 29.99 1016 10 16 N/A
3:15 pm 15:15 Sunny 42 5.8 32 -0.1 66 66 SW 9 15 29.99 1016 10 16 N/A
3:35 pm 15:35 Sunny 43 6.2 32 -0.1 64 64 SSW 9 15 29.97 1015 10 16 N/A
3:55 pm 15:55 Sunny 43 6.3 32 undefined 64 64 SSW 8 13 29.97 1015 10 16 N/A
4:15 pm 16:15 Sunny 43 6.2 32 undefined 65 65 SW 8 13 29.97 1015 10 16 N/A
4:35 pm 16:35 Sunny 42 5.8 32 undefined 67 67 SW 9 15 29.97 1015 10 16 N/A
4:55 pm 16:55 Sunny 41 5 32 -0.2 69 69 SW 10 17 29.98 1015 10 16 N/A
5:15 pm 17:15 Clear 40 4.7 31 -0.5 69 69 SW 9 15 29.98 1015 10 16 N/A
5:35 pm 17:35 Clear 40 4.5 31 -0.7 69 69 SW 9 15 29.97 1015 10 16 N/A
5:55 pm 17:55 Clear 40 4.4 31 -0.8 69 69 SW 8 13 29.96 1015 10 16 N/A
6:15 pm 18:15 Clear 40 4.5 31 -0.6 70 70 SW 10 17 29.95 1014 10 16 N/A
6:35 pm 18:35 Clear 39 4 31 -0.5 73 73 SW 10 17 29.97 1015 10 16 N/A
6:55 pm 18:55 Clear 39 3.7 31 -0.6 74 74 SW 9 15 29.97 1015 10 16 N/A
7:15 pm 19:15 Clear 39 3.7 31 -0.5 74 74 SW 9 15 29.96 1015 10 16 N/A
7:35 pm 19:35 Clear 38 3.3 31 -0.5 76 76 SW 10 17 29.97 1015 10 16 N/A
7:55 pm 19:55 Clear 38 3.3 31 -0.3 78 78 SW 10 17 29.97 1015 10 16 N/A
8:15 pm 20:15 Clear 38 3.4 31 -0.5 76 76 WSW 10 17 29.97 1015 10 16 N/A
8:35 pm 20:35 Clear 38 3.5 31 -0.6 75 75 W 12 19 29.97 1015 10 16 N/A
8:55 pm 20:55 Clear 38 3.1 30 -0.9 75 75 W 12 19 29.98 1015 10 16 N/A
9:15 pm 21:15 Clear 37 2.6 30 -1 77 77 W 10 17 29.99 1016 10 16 N/A
9:35 pm 21:35 Clear 37 2.6 30 -1.2 76 76 W 8 13 29.99 1016 10 16 N/A
9:55 pm 21:55 Clear 39 3.7 29 -1.8 68 68 WNW 9 15 29.98 1015 10 16 N/A
10:15 pm 22:15 Clear 38 3.5 28 -2 68 68 WNW 10 17 29.98 1015 10 16 N/A
10:35 pm 22:35 Clear 38 3.1 28 -2 70 70 WNW 7 11 29.99 1015 10 16 N/A
10:55 pm 22:55 Clear 37 2.5 28 -2.2 71 71 WNW 10 17 30.00 1016 10 16 N/A
11:15 pm 23:15 Partly Cloudy 35 1.8 28 -2.5 73 73 NW 8 13 30.02 1017 10 16 N/A
11:35 pm 23:35 Partly Cloudy 37 2.7 28 -2.1 71 71 NW 10 17 30.02 1017 10 16 N/A
11:55 pm 23:55 Mostly Cloudy 38 3.3 29 -1.9 69 69 NW 12 19 30.02 1017 10 16 N/A

Powered by AerisWeather